Regional Weather Roundup
Issued by NWS

Home | Current Version | Previous Version | Graphics & Text | Print | Product List | Glossary On
Versions: 1 2 3 4 5 6 7 8 9 10 11 12 13 14 15 16 17 18 19 20 21 22 23 24 25 26 27 28 29 30 31 32 33 34 35 36 37 38 39 40 41 42 43 44 45 46 47 48 49 50
000
ASUS45 KCYS 031110
RWRWY

WYOMING REGIONAL WEATHER ROUNDUP
NATIONAL WEATHER SERVICE CHEYENNE WY
400 AM MST TUE MAR 03 2015

NOTE:  "FAIR" INDICATES FEW OR NO CLOUDS BELOW 12,000 FEET
WITH NO SIGNIFICANT WEATHER AND/OR OBSTRUCTIONS TO VISIBILITY.

WYZ001-031200-
YELLOWSTONE NATIONAL PARK

CITY           SKY/WX    TMP DP  RH WIND       PRES   REMARKS
LK YELLOWSTONE   N/A      6   0  76 CALM      29.68R
W YELLOWSTONE  NOT AVBL

$$
WYZ002>013-054>058-071-098>099-031200-
NORTHERN WYOMING

CITY           SKY/WX    TMP DP  RH WIND       PRES   REMARKS
JACKSON        CLOUDY    25  25 100 S20       29.63F WCI  11
CODY           CLOUDY    10   5  79 N16       29.92R WCI  -7
GREYBULL       CLOUDY    17   3  54 NW25G36   29.88R WCI  -1
WORLAND        CLOUDY    16   7  67 NW16G26   29.90R WCI   1
SHERIDAN       LGT SNOW  13   8  81 NW17      30.02R WCI  -4
BUFFALO        LGT SNOW  10   6  84 N32G39    29.90R FOG     WCI -13
GILLETTE       LGT SNOW  11   7  84 NW25G32   29.91R VSB 3/4 WCI -10
HULETT         LGT SNOW  12  10  92 N15       29.92R WCI  -4
NEWCASTLE      FAIR      18   7  62 N23G30    29.83R WCI   0

$$
WYZ014>020-022>026-101>103-031200-
CENTRAL WYOMING

CITY           SKY/WX    TMP DP  RH WIND       PRES   REMARKS
BIG PINEY      FAIR      15  10  80 NW5       29.68S WCI   8
PINEDALE       PTSUNNY   18  16  93 E5        29.69R WCI  11
DUBOIS         LGT SNOW  14  12  92 SE9       29.65R WCI   2
LANDER         SNOW      15  13  91 NE8       29.81R VSB 1/2 WCI   4
RIVERTON       LGT SNOW  14   8  77 N23G35    29.79R WCI  -5
CASPER         LGT SNOW  13   8  81 NE14      29.85R WCI  -2
DOUGLAS        LGT SNOW  15  11  83 N20G30    29.85R FOG     WCI  -2

$$
WYZ021-027>030-104>119-031200-
SOUTHERN WYOMING

CITY           SKY/WX    TMP DP  RH WIND       PRES   REMARKS
EVANSTON       LGT SNOW  22  21  96 SW12      29.72F FOG     WCI  10
KEMMERER       CLOUDY    23  21  93 W8        29.70S WCI  14
FORT BRIDGER   PTSUNNY   23  22  96 W13       29.74F WCI  11
ROCK SPRINGS   CLOUDY    20  18  92 E8        29.74R WCI  10
DIXON          CLOUDY    30  27  87 W23       29.73R WCI  17
RAWLINS        LGT SNOW  18  14  84 NE8       29.71R FOG     WCI   8
SARATOGA       LGT SNOW  19  18  93 NW8       29.69R VSB 1   WCI   9
LARAMIE        LGT SNOW  19  16  88 NW17      29.63R FOG     WCI   4
CHEYENNE       LGT SNOW  22  17  81 N24G40    29.66R WCI   5
TORRINGTON     LGT SNOW  26  22  84 N17G25    29.74R FOG     WCI  13
PINE BLUFFS    LGT SNOW  28  27  93 N21G29    29.68R WCI  15

$$



USA.gov is the U.S. government's official web portal to all federal, state and local government web resources and services.